Time,TemperatureF,DewpointF,PressureIn,WindDirection,WindDirectionDegrees,WindSpeedMPH,WindSpeedGustMPH,Humidity,HourlyPrecipIn,Conditions,Clouds,dailyrainin,SoftwareType,DateUTC
2013-08-26 00:00:00,76.7,73.2,30.01,SSE,150,0.0,1.0,89,0.00,,CLR,0.00,VWS V14.01,2013-08-26 05:00:00,
2013-08-26 00:04:00,76.7,73.2,30.01,ESE,107,0.0,0.0,89,0.00,,CLR,0.00,VWS V14.01,2013-08-26 05:04:00,
2013-08-26 00:09:00,76.6,73.4,30.01,SE,132,0.0,0.0,90,0.00,,CLR,0.00,VWS V14.01,2013-08-26 05:09:00,
2013-08-26 00:15:00,76.5,73.3,30.00,SE,132,0.0,0.0,90,0.00,,CLR,0.00,VWS V14.01,2013-08-26 05:15:00,
2013-08-26 00:20:00,76.4,73.2,30.00,South,174,0.0,1.0,90,0.00,,CLR,0.00,VWS V14.01,2013-08-26 05:20:00,
2013-08-26 00:25:00,76.4,73.2,30.00,South,173,0.0,1.0,90,0.00,,CLR,0.00,VWS V14.01,2013-08-26 05:25:00,
2013-08-26 00:30:00,76.3,73.2,30.00,SE,136,0.0,0.0,90,0.00,,CLR,0.00,VWS V14.01,2013-08-26 05:30:00,
2013-08-26 00:35:00,76.2,73.1,30.00,SE,136,0.0,0.0,90,0.00,,CLR,0.00,VWS V14.01,2013-08-26 05:35:00,
2013-08-26 00:40:00,76.1,73.0,30.00,SE,136,0.0,1.0,90,0.00,,CLR,0.00,VWS V14.01,2013-08-26 05:40:00,
2013-08-26 00:45:00,76.0,72.9,30.00,SE,136,0.0,1.0,90,0.00,,CLR,0.00,VWS V14.01,2013-08-26 05:45:00,
2013-08-26 00:50:00,75.9,72.8,30.00,SE,136,0.0,1.0,90,0.00,,CLR,0.00,VWS V14.01,2013-08-26 05:50:00,
2013-08-26 00:55:00,75.8,73.0,30.00,SE,136,0.0,1.0,91,0.00,,CLR,0.00,VWS V14.01,2013-08-26 05:55:00,
2013-08-26 01:00:00,75.7,72.9,30.00,SE,136,0.0,0.0,91,0.00,,CLR,0.00,VWS V14.01,2013-08-26 06:00:00,
2013-08-26 01:05:00,75.7,72.9,30.00,SE,136,0.0,0.0,91,0.00,,CLR,0.00,VWS V14.01,2013-08-26 06:05:00,
2013-08-26 01:10:00,75.6,72.8,30.00,SE,136,0.0,0.0,91,0.00,,CLR,0.00,VWS V14.01,2013-08-26 06:10:00,
2013-08-26 01:15:00,75.5,72.7,30.00,SE,136,0.0,0.0,91,0.00,,CLR,0.00,VWS V14.01,2013-08-26 06:15:00,
2013-08-26 01:20:00,75.4,72.6,30.00,SE,136,0.0,0.0,91,0.00,,CLR,0.00,VWS V14.01,2013-08-26 06:20:00,
2013-08-26 01:26:00,75.4,72.6,30.00,SE,136,0.0,0.0,91,0.00,,CLR,0.00,VWS V14.01,2013-08-26 06:26:00,
2013-08-26 01:30:00,75.3,72.5,30.00,SE,136,0.0,0.0,91,0.00,,CLR,0.00,VWS V14.01,2013-08-26 06:30:00,
2013-08-26 01:31:00,75.3,72.5,30.00,SE,136,0.0,0.0,91,0.00,,CLR,0.00,VWS V14.01,2013-08-26 06:31:00,
2013-08-26 01:36:00,75.2,72.7,30.00,South,177,0.0,1.0,92,0.00,,CLR,0.00,VWS V14.01,2013-08-26 06:36:00,
2013-08-26 01:41:00,75.2,72.7,30.00,South,177,0.0,1.0,92,0.00,,CLR,0.00,VWS V14.01,2013-08-26 06:41:00,
2013-08-26 01:46:00,75.1,72.6,29.99,South,177,0.0,1.0,92,0.00,,CLR,0.00,VWS V14.01,2013-08-26 06:46:00,
2013-08-26 01:51:00,75.0,72.5,29.99,South,177,0.0,1.0,92,0.00,,CLR,0.00,VWS V14.01,2013-08-26 06:51:00,
2013-08-26 01:56:00,74.9,72.4,29.99,South,177,0.0,1.0,92,0.00,,CLR,0.00,VWS V14.01,2013-08-26 06:56:00,
2013-08-26 02:00:00,74.9,72.4,29.99,South,177,0.0,1.0,92,0.00,,CLR,0.00,VWS V14.01,2013-08-26 07:00:00,
2013-08-26 02:01:00,74.8,72.3,29.99,South,177,0.0,0.0,92,0.00,,,0.00,VWS V14.01,2013-08-26 07:01:00,
2013-08-26 02:06:00,74.7,72.2,29.99,South,177,0.0,0.0,92,0.00,,,0.00,VWS V14.01,2013-08-26 07:06:00,
2013-08-26 02:11:00,74.7,72.2,29.99,South,177,0.0,0.0,92,0.00,,,0.00,VWS V14.01,2013-08-26 07:11:00,
2013-08-26 02:16:00,74.6,72.4,29.99,South,177,0.0,0.0,93,0.00,,,0.00,VWS V14.01,2013-08-26 07:16:00,
2013-08-26 02:22:00,74.5,72.3,29.99,South,177,0.0,0.0,93,0.00,,,0.00,VWS V14.01,2013-08-26 07:22:00,
2013-08-26 02:27:00,74.3,72.2,29.99,South,177,0.0,0.0,93,0.00,,,0.00,VWS V14.01,2013-08-26 07:27:00,
2013-08-26 02:30:00,74.3,72.2,29.99,South,177,0.0,0.0,93,0.00,,CLR,0.00,VWS V14.01,2013-08-26 07:30:00,
2013-08-26 02:32:00,74.2,72.1,29.99,South,177,0.0,0.0,93,0.00,,,0.00,VWS V14.01,2013-08-26 07:32:00,
2013-08-26 02:37:00,74.1,71.9,29.99,South,177,0.0,0.0,93,0.00,,,0.00,VWS V14.01,2013-08-26 07:37:00,
2013-08-26 02:42:00,74.0,71.8,29.99,South,177,0.0,0.0,93,0.00,,,0.00,VWS V14.01,2013-08-26 07:42:00,
2013-08-26 02:47:00,73.9,71.8,29.99,South,177,0.0,0.0,93,0.00,,,0.00,VWS V14.01,2013-08-26 07:47:00,
2013-08-26 02:52:00,73.7,71.9,29.99,South,177,0.0,0.0,94,0.00,,,0.00,VWS V14.01,2013-08-26 07:52:00,
2013-08-26 02:57:00,73.6,71.8,29.99,South,177,0.0,0.0,94,0.00,,,0.00,VWS V14.01,2013-08-26 07:57:00,
2013-08-26 03:00:00,73.6,71.8,29.99,South,177,0.0,0.0,94,0.00,,CLR,0.00,VWS V14.01,2013-08-26 08:00:00,
2013-08-26 03:02:00,73.5,71.7,29.99,South,177,0.0,0.0,94,0.00,,,0.00,VWS V14.01,2013-08-26 08:02:00,
2013-08-26 03:07:00,73.5,71.7,29.99,South,177,0.0,0.0,94,0.00,,,0.00,VWS V14.01,2013-08-26 08:07:00,
2013-08-26 03:12:00,73.4,71.6,30.00,South,177,0.0,0.0,94,0.00,,,0.00,VWS V14.01,2013-08-26 08:12:00,
2013-08-26 03:17:00,73.3,71.5,29.99,South,177,0.0,0.0,94,0.00,,,0.00,VWS V14.01,2013-08-26 08:17:00,
2013-08-26 03:22:00,73.3,71.5,30.00,South,177,0.0,0.0,94,0.00,,,0.00,VWS V14.01,2013-08-26 08:22:00,
2013-08-26 03:27:00,73.2,71.4,30.00,South,177,0.0,0.0,94,0.00,,,0.00,VWS V14.01,2013-08-26 08:27:00,
2013-08-26 03:30:00,73.1,71.3,30.00,South,177,0.0,0.0,94,0.00,,CLR,0.00,VWS V14.01,2013-08-26 08:30:00,
2013-08-26 03:33:00,73.1,71.3,30.00,South,177,0.0,0.0,94,0.00,,,0.00,VWS V14.01,2013-08-26 08:33:00,
2013-08-26 03:38:00,73.0,71.5,30.00,South,177,0.0,0.0,95,0.00,,,0.00,VWS V14.01,2013-08-26 08:38:00,
2013-08-26 03:43:00,72.9,71.4,30.00,South,177,0.0,0.0,95,0.00,,,0.00,VWS V14.01,2013-08-26 08:43:00,
2013-08-26 03:48:00,72.8,71.3,30.00,South,177,0.0,0.0,95,0.00,,,0.00,VWS V14.01,2013-08-26 08:48:00,
2013-08-26 03:53:00,72.8,71.3,30.00,South,177,0.0,0.0,95,0.00,,,0.00,VWS V14.01,2013-08-26 08:53:00,
2013-08-26 03:58:00,72.7,71.2,30.00,South,177,0.0,0.0,95,0.00,,,0.00,VWS V14.01,2013-08-26 08:58:00,
2013-08-26 04:00:00,72.7,71.2,30.00,South,177,0.0,0.0,95,0.00,,CLR,0.00,VWS V14.01,2013-08-26 09:00:00,
2013-08-26 04:03:00,72.6,71.1,30.00,South,177,0.0,0.0,95,0.00,,,0.00,VWS V14.01,2013-08-26 09:03:00,
2013-08-26 04:08:00,72.6,71.1,30.00,South,177,0.0,0.0,95,0.00,,,0.00,VWS V14.01,2013-08-26 09:08:00,
2013-08-26 04:13:00,72.5,71.0,30.00,South,177,0.0,0.0,95,0.00,,,0.00,VWS V14.01,2013-08-26 09:13:00,
2013-08-26 04:18:00,72.4,70.9,30.00,South,177,0.0,0.0,95,0.00,,,0.00,VWS V14.01,2013-08-26 09:18:00,
2013-08-26 04:23:00,72.3,70.8,30.00,South,177,0.0,0.0,95,0.00,,,0.00,VWS V14.01,2013-08-26 09:23:00,
2013-08-26 04:28:00,72.2,70.7,30.00,South,177,0.0,0.0,95,0.00,,,0.00,VWS V14.01,2013-08-26 09:28:00,
2013-08-26 04:30:00,72.2,70.7,30.00,South,177,0.0,0.0,95,0.00,,CLR,0.00,VWS V14.01,2013-08-26 09:30:00,
2013-08-26 04:33:00,72.1,70.6,30.00,South,177,0.0,0.0,95,0.00,,,0.00,VWS V14.01,2013-08-26 09:33:00,
2013-08-26 04:39:00,72.0,70.5,30.00,South,177,0.0,0.0,95,0.00,,,0.00,VWS V14.01,2013-08-26 09:39:00,
2013-08-26 04:44:00,71.9,70.4,30.00,South,177,0.0,0.0,95,0.00,,,0.00,VWS V14.01,2013-08-26 09:44:00,
2013-08-26 04:49:00,71.9,70.4,30.00,South,177,0.0,0.0,95,0.00,,,0.00,VWS V14.01,2013-08-26 09:49:00,
2013-08-26 04:54:00,71.8,70.3,30.00,South,177,0.0,0.0,95,0.00,,,0.00,VWS V14.01,2013-08-26 09:54:00,
2013-08-26 04:59:00,71.8,70.6,30.00,South,177,0.0,0.0,96,0.00,,,0.00,VWS V14.01,2013-08-26 09:59:00,
2013-08-26 05:00:00,71.8,70.6,30.00,South,177,0.0,0.0,96,0.00,,CLR,0.00,VWS V14.01,2013-08-26 10:00:00,
2013-08-26 05:04:00,71.9,70.7,30.00,South,177,0.0,0.0,96,0.00,,,0.00,VWS V14.01,2013-08-26 10:04:00,
2013-08-26 05:09:00,71.8,70.6,30.00,South,177,0.0,0.0,96,0.00,,,0.00,VWS V14.01,2013-08-26 10:09:00,
2013-08-26 05:14:00,71.7,70.5,30.00,South,177,0.0,0.0,96,0.00,,,0.00,VWS V14.01,2013-08-26 10:14:00,
2013-08-26 05:19:00,71.5,70.0,30.00,South,177,0.0,0.0,95,0.00,,,0.00,VWS V14.01,2013-08-26 10:19:00,
2013-08-26 05:24:00,71.4,69.9,30.00,South,177,0.0,0.0,95,0.00,,,0.00,VWS V14.01,2013-08-26 10:24:00,
2013-08-26 05:29:00,71.3,69.8,30.00,South,177,0.0,0.0,95,0.00,,,0.00,VWS V14.01,2013-08-26 10:29:00,
2013-08-26 05:30:00,71.3,69.8,30.00,South,177,0.0,0.0,95,0.00,,CLR,0.00,VWS V14.01,2013-08-26 10:30:00,
2013-08-26 05:34:00,71.2,70.0,30.00,South,177,0.0,0.0,96,0.00,,,0.00,VWS V14.01,2013-08-26 10:34:00,
2013-08-26 05:39:00,71.2,70.0,30.00,South,177,0.0,0.0,96,0.00,,,0.00,VWS V14.01,2013-08-26 10:39:00,
2013-08-26 05:45:00,71.1,69.9,30.00,South,177,0.0,0.0,96,0.00,,,0.00,VWS V14.01,2013-08-26 10:45:00,
2013-08-26 05:50:00,71.1,69.9,30.00,South,177,0.0,0.0,96,0.00,,,0.00,VWS V14.01,2013-08-26 10:50:00,
2013-08-26 05:55:00,71.0,69.8,30.00,South,177,0.0,0.0,96,0.00,,,0.00,VWS V14.01,2013-08-26 10:55:00,
2013-08-26 06:00:00,70.9,69.7,30.00,South,177,0.0,0.0,96,0.00,,,0.00,VWS V14.01,2013-08-26 11:00:00,
2013-08-26 06:05:00,70.9,69.7,30.00,South,177,0.0,0.0,96,0.00,,,0.00,VWS V14.01,2013-08-26 11:05:00,
2013-08-26 06:10:00,70.8,69.6,30.01,South,177,0.0,0.0,96,0.00,,,0.00,VWS V14.01,2013-08-26 11:10:00,
2013-08-26 06:15:00,70.7,69.5,30.00,South,177,0.0,0.0,96,0.00,,,0.00,VWS V14.01,2013-08-26 11:15:00,
2013-08-26 06:20:00,70.7,69.5,30.01,South,177,0.0,0.0,96,0.00,,,0.00,VWS V14.01,2013-08-26 11:20:00,
2013-08-26 06:25:00,70.6,69.4,30.01,South,177,0.0,0.0,96,0.00,,,0.00,VWS V14.01,2013-08-26 11:25:00,
2013-08-26 06:30:00,70.6,69.4,30.01,South,177,0.0,0.0,96,0.00,,,0.00,VWS V14.01,2013-08-26 11:30:00,
2013-08-26 06:35:00,70.6,69.4,30.01,South,169,0.0,0.0,96,0.00,,,0.00,VWS V14.01,2013-08-26 11:35:00,
2013-08-26 06:40:00,70.5,69.3,30.01,South,169,0.0,0.0,96,0.00,,,0.00,VWS V14.01,2013-08-26 11:40:00,
2013-08-26 06:45:00,70.5,69.3,30.01,South,169,0.0,0.0,96,0.00,,,0.00,VWS V14.01,2013-08-26 11:45:00,
2013-08-26 06:51:00,70.6,69.7,30.01,South,169,0.0,0.0,97,0.00,,,0.00,VWS V14.01,2013-08-26 11:51:00,
2013-08-26 06:56:00,70.7,69.8,30.01,South,169,0.0,1.0,97,0.00,,,0.00,VWS V14.01,2013-08-26 11:56:00,
2013-08-26 07:00:00,70.8,69.9,30.01,South,169,0.0,1.0,97,0.00,,CLR,0.00,VWS V14.01,2013-08-26 12:00:00,
2013-08-26 07:01:00,70.8,69.9,30.01,South,169,0.0,0.0,97,0.00,,,0.00,VWS V14.01,2013-08-26 12:01:00,
2013-08-26 07:06:00,71.0,70.1,30.01,West,273,0.0,0.0,97,0.00,,,0.00,VWS V14.01,2013-08-26 12:06:00,
2013-08-26 07:11:00,71.2,70.3,30.01,West,273,0.0,0.0,97,0.00,,,0.00,VWS V14.01,2013-08-26 12:11:00,
2013-08-26 07:16:00,71.4,70.5,30.01,West,273,0.0,0.0,97,0.00,,,0.00,VWS V14.01,2013-08-26 12:16:00,
2013-08-26 07:21:00,71.5,70.6,30.01,West,273,0.0,0.0,97,0.00,,,0.00,VWS V14.01,2013-08-26 12:21:00,
2013-08-26 07:26:00,71.8,70.9,30.01,West,273,0.0,0.0,97,0.00,,,0.00,VWS V14.01,2013-08-26 12:26:00,
2013-08-26 07:30:00,71.9,71.0,30.02,West,273,0.0,0.0,97,0.00,,CLR,0.00,VWS V14.01,2013-08-26 12:30:00,
2013-08-26 07:31:00,72.0,70.8,30.02,West,273,0.0,0.0,96,0.00,,,0.00,VWS V14.01,2013-08-26 12:31:00,
2013-08-26 07:36:00,72.2,71.0,30.02,West,273,0.0,0.0,96,0.00,,,0.00,VWS V14.01,2013-08-26 12:36:00,
2013-08-26 07:41:00,72.5,71.3,30.02,West,265,0.0,0.0,96,0.00,,,0.00,VWS V14.01,2013-08-26 12:41:00,
2013-08-26 07:46:00,72.6,71.1,30.01,SW,225,0.0,1.0,95,0.00,,,0.00,VWS V14.01,2013-08-26 12:46:00,
2013-08-26 07:51:00,72.7,71.2,30.02,SW,223,0.0,1.0,95,0.00,,,0.00,VWS V14.01,2013-08-26 12:51:00,
2013-08-26 07:56:00,72.8,71.3,30.02,WNW,282,0.0,1.0,95,0.00,,,0.00,VWS V14.01,2013-08-26 12:56:00,
2013-08-26 08:00:00,72.9,71.4,30.01,West,275,0.0,1.0,95,0.00,,CLR,0.00,VWS V14.01,2013-08-26 13:00:00,
2013-08-26 08:02:00,72.9,71.4,30.01,West,275,0.0,0.0,95,0.00,,,0.00,VWS V14.01,2013-08-26 13:02:00,
2013-08-26 08:07:00,73.1,71.3,30.01,South,183,0.0,0.0,94,0.00,,,0.00,VWS V14.01,2013-08-26 13:07:00,
2013-08-26 08:12:00,73.3,71.5,30.01,South,172,0.0,0.0,94,0.00,,,0.00,VWS V14.01,2013-08-26 13:12:00,
2013-08-26 08:17:00,73.5,71.7,30.01,South,172,0.0,1.0,94,0.00,,,0.00,VWS V14.01,2013-08-26 13:17:00,
2013-08-26 08:22:00,73.8,72.0,30.01,South,172,0.0,1.0,94,0.00,,,0.00,VWS V14.01,2013-08-26 13:22:00,
2013-08-26 08:27:00,74.0,71.8,30.01,South,176,0.0,1.0,93,0.00,,,0.00,VWS V14.01,2013-08-26 13:27:00,
2013-08-26 08:30:00,74.2,72.1,30.01,South,176,1.0,2.0,93,0.00,,CLR,0.00,VWS V14.01,2013-08-26 13:30:00,
2013-08-26 08:32:00,74.3,71.8,30.01,South,190,0.0,2.0,92,0.00,,,0.00,VWS V14.01,2013-08-26 13:32:00,
2013-08-26 08:37:00,74.4,71.9,30.01,South,186,0.0,2.0,92,0.00,,,0.00,VWS V14.01,2013-08-26 13:37:00,
2013-08-26 08:42:00,74.7,72.2,30.01,South,186,0.0,2.0,92,0.00,,,0.00,VWS V14.01,2013-08-26 13:42:00,
2013-08-26 08:47:00,75.0,72.5,30.01,South,182,0.0,2.0,92,0.00,,,0.00,VWS V14.01,2013-08-26 13:47:00,
2013-08-26 08:52:00,75.3,72.5,30.01,South,182,0.0,2.0,91,0.00,,,0.00,VWS V14.01,2013-08-26 13:52:00,
2013-08-26 08:57:00,75.6,72.5,30.01,South,174,0.0,2.0,90,0.00,,,0.00,VWS V14.01,2013-08-26 13:57:00,
2013-08-26 09:00:00,75.7,72.6,30.01,South,174,0.0,2.0,90,0.00,,CLR,0.00,VWS V14.01,2013-08-26 14:00:00,
2013-08-26 09:03:00,76.0,72.9,30.01,SSE,163,0.0,1.0,90,0.00,,,0.00,VWS V14.01,2013-08-26 14:03:00,
2013-08-26 09:08:00,76.3,72.8,30.01,South,175,0.0,1.0,89,0.00,,,0.00,VWS V14.01,2013-08-26 14:08:00,
2013-08-26 09:13:00,76.8,73.0,30.01,South,177,2.0,2.0,88,0.00,,,0.00,VWS V14.01,2013-08-26 14:13:00,
2013-08-26 09:18:00,77.4,73.6,30.02,West,279,2.0,2.0,88,0.00,,,0.00,VWS V14.01,2013-08-26 14:18:00,
2013-08-26 09:23:00,78.0,73.5,30.02,SW,223,0.0,3.0,86,0.00,,,0.00,VWS V14.01,2013-08-26 14:23:00,
2013-08-26 09:28:00,78.6,73.4,30.02,WSW,251,0.0,3.0,84,0.00,,,0.00,VWS V14.01,2013-08-26 14:28:00,
2013-08-26 09:30:00,78.7,73.1,30.02,WNW,284,0.0,3.0,83,0.00,,CLR,0.00,VWS V14.01,2013-08-26 14:30:00,
2013-08-26 09:33:00,79.0,73.8,30.02,West,271,0.0,0.0,84,0.00,,,0.00,VWS V14.01,2013-08-26 14:33:00,
2013-08-26 09:38:00,79.7,74.1,30.02,SSW,194,0.0,2.0,83,0.00,,,0.00,VWS V14.01,2013-08-26 14:38:00,
2013-08-26 09:43:00,80.2,73.1,30.02,South,190,0.0,2.0,79,0.00,,,0.00,VWS V14.01,2013-08-26 14:43:00,
2013-08-26 09:48:00,80.7,74.0,30.02,South,172,0.0,2.0,80,0.00,,,0.00,VWS V14.01,2013-08-26 14:48:00,
2013-08-26 09:53:00,81.0,73.5,30.02,South,188,0.0,2.0,78,0.00,,,0.00,VWS V14.01,2013-08-26 14:53:00,
2013-08-26 09:58:00,81.4,73.9,30.02,SW,215,0.0,2.0,78,0.00,,,0.00,VWS V14.01,2013-08-26 14:58:00,
2013-08-26 10:00:00,81.4,74.6,30.02,SW,215,0.0,2.0,80,0.00,,CLR,0.00,VWS V14.01,2013-08-26 15:00:00,
2013-08-26 10:03:00,81.7,74.2,30.02,SE,142,0.0,1.0,78,0.00,,,0.00,VWS V14.01,2013-08-26 15:03:00,
2013-08-26 10:09:00,82.1,73.8,30.02,South,182,0.0,5.0,76,0.00,,,0.00,VWS V14.01,2013-08-26 15:09:00,
2013-08-26 10:14:00,82.4,73.7,30.02,South,184,0.0,5.0,75,0.00,,,0.00,VWS V14.01,2013-08-26 15:14:00,
2013-08-26 10:19:00,82.6,73.9,30.02,SE,144,0.0,5.0,75,0.00,,,0.00,VWS V14.01,2013-08-26 15:19:00,
2013-08-26 10:24:00,82.9,72.9,30.02,SSW,196,0.0,5.0,72,0.00,,,0.00,VWS V14.01,2013-08-26 15:24:00,
2013-08-26 10:29:00,83.1,73.6,30.02,SSE,155,1.0,5.0,73,0.00,,,0.00,VWS V14.01,2013-08-26 15:29:00,
2013-08-26 10:30:00,83.1,73.6,30.02,SSE,155,0.0,5.0,73,0.00,,CLR,0.00,VWS V14.01,2013-08-26 15:30:00,
2013-08-26 10:34:00,83.4,73.4,30.02,SSE,153,0.0,2.0,72,0.00,,,0.00,VWS V14.01,2013-08-26 15:34:00,
2013-08-26 10:39:00,83.8,74.6,30.02,SSE,163,1.0,2.0,74,0.00,,,0.00,VWS V14.01,2013-08-26 15:39:00,
2013-08-26 10:44:00,84.1,73.7,30.02,WSW,239,0.0,2.0,71,0.00,,,0.00,VWS V14.01,2013-08-26 15:44:00,
2013-08-26 10:49:00,84.2,74.2,30.02,SE,128,0.0,2.0,72,0.00,,,0.00,VWS V14.01,2013-08-26 15:49:00,
2013-08-26 10:54:00,84.8,74.4,30.02,SE,128,0.0,2.0,71,0.00,,,0.00,VWS V14.01,2013-08-26 15:54:00,
2013-08-26 10:59:00,85.1,73.8,30.02,SW,231,0.0,0.0,69,0.00,,,0.00,VWS V14.01,2013-08-26 15:59:00,
2013-08-26 11:00:00,85.1,73.8,30.02,SW,231,0.0,2.0,69,0.00,,CLR,0.00,VWS V14.01,2013-08-26 16:00:00,
2013-08-26 11:04:00,85.2,73.9,30.02,SSE,156,1.0,1.0,69,0.00,,,0.00,VWS V14.01,2013-08-26 16:04:00,
2013-08-26 11:09:00,85.6,74.7,30.02,SSE,155,0.0,1.0,70,0.00,,,0.00,VWS V14.01,2013-08-26 16:09:00,
2013-08-26 11:15:00,86.0,75.1,30.02,West,259,0.0,2.0,70,0.00,,,0.00,VWS V14.01,2013-08-26 16:15:00,
2013-08-26 11:20:00,86.3,74.5,30.02,SSE,167,0.0,2.0,68,0.00,,,0.00,VWS V14.01,2013-08-26 16:20:00,
2013-08-26 11:25:00,86.5,75.1,30.02,WSW,240,0.0,2.0,69,0.00,,,0.00,VWS V14.01,2013-08-26 16:25:00,
2013-08-26 11:30:00,86.6,73.4,30.02,SSE,167,0.0,0.0,65,0.00,,,0.00,VWS V14.01,2013-08-26 16:30:00,
2013-08-26 11:35:00,86.5,73.8,30.02,SE,144,0.0,1.0,66,0.00,,,0.00,VWS V14.01,2013-08-26 16:35:00,
2013-08-26 11:40:00,86.5,73.8,30.02,SE,129,0.0,2.0,66,0.00,,,0.00,VWS V14.01,2013-08-26 16:40:00,
2013-08-26 11:45:00,86.6,73.9,30.01,SSE,159,0.0,2.0,66,0.00,,,0.00,VWS V14.01,2013-08-26 16:45:00,
2013-08-26 11:50:00,86.8,72.2,30.01,SSE,161,0.0,2.0,62,0.00,,,0.00,VWS V14.01,2013-08-26 16:50:00,
2013-08-26 11:55:00,87.0,72.9,30.01,South,182,0.0,2.0,63,0.00,,,0.00,VWS V14.01,2013-08-26 16:55:00,
2013-08-26 12:00:00,87.3,74.1,30.01,SSE,163,0.0,1.0,65,0.00,,,0.00,VWS V14.01,2013-08-26 17:00:00,
2013-08-26 12:05:00,87.4,75.1,30.01,SSE,163,0.0,1.0,67,0.00,,,0.00,VWS V14.01,2013-08-26 17:05:00,
2013-08-26 12:10:00,87.7,73.1,30.01,South,178,0.0,1.0,62,0.00,,,0.00,VWS V14.01,2013-08-26 17:10:00,
2013-08-26 12:15:00,87.5,74.8,30.01,East,101,0.0,2.0,66,0.00,,,0.00,VWS V14.01,2013-08-26 17:15:00,
2013-08-26 12:21:00,88.1,73.9,30.01,SSE,153,0.0,2.0,63,0.00,,,0.00,VWS V14.01,2013-08-26 17:21:00,
2013-08-26 12:26:00,88.5,74.3,30.00,SSE,157,1.0,2.0,63,0.00,,,0.00,VWS V14.01,2013-08-26 17:26:00,
2013-08-26 12:30:00,88.3,74.1,30.00,ESE,112,0.0,2.0,63,0.00,,CLR,0.00,VWS V14.01,2013-08-26 17:30:00,
2013-08-26 12:31:00,88.2,74.0,30.00,ESE,108,0.0,0.0,63,0.00,,,0.00,VWS V14.01,2013-08-26 17:31:00,
2013-08-26 12:36:00,88.4,74.2,30.00,SSE,163,0.0,2.0,63,0.00,,,0.00,VWS V14.01,2013-08-26 17:36:00,
2013-08-26 12:41:00,88.5,74.3,30.00,SSE,155,0.0,2.0,63,0.00,,,0.00,VWS V14.01,2013-08-26 17:41:00,
2013-08-26 12:46:00,88.6,74.4,30.00,ESE,119,0.0,3.0,63,0.00,,,0.00,VWS V14.01,2013-08-26 17:46:00,
2013-08-26 12:51:00,88.8,75.1,30.00,SE,142,0.0,3.0,64,0.00,,,0.00,VWS V14.01,2013-08-26 17:51:00,
2013-08-26 12:56:00,88.7,74.5,30.00,SSW,196,0.0,3.0,63,0.00,,,0.00,VWS V14.01,2013-08-26 17:56:00,
2013-08-26 13:00:00,88.8,73.1,30.00,South,175,0.0,3.0,60,0.00,,CLR,0.00,VWS V14.01,2013-08-26 18:00:00,
2013-08-26 13:01:00,88.9,72.2,29.99,SE,142,1.0,2.0,58,0.00,,,0.00,VWS V14.01,2013-08-26 18:01:00,
2013-08-26 13:06:00,88.9,73.7,29.99,SSE,150,0.0,2.0,61,0.00,,,0.00,VWS V14.01,2013-08-26 18:06:00,
2013-08-26 13:11:00,88.7,72.5,29.99,South,169,0.0,2.0,59,0.00,,,0.00,VWS V14.01,2013-08-26 18:11:00,
2013-08-26 13:16:00,88.9,75.2,29.99,ESE,103,0.0,3.0,64,0.00,,,0.00,VWS V14.01,2013-08-26 18:16:00,
2013-08-26 13:22:00,89.1,71.9,29.99,South,172,0.0,3.0,57,0.00,,,0.00,VWS V14.01,2013-08-26 18:22:00,
2013-08-26 13:27:00,88.8,71.6,29.99,SSE,153,0.0,3.0,57,0.00,,,0.00,VWS V14.01,2013-08-26 18:27:00,
2013-08-26 13:30:00,88.9,70.7,29.99,ESE,116,0.0,3.0,55,0.00,,CLR,0.00,VWS V14.01,2013-08-26 18:30:00,
2013-08-26 13:32:00,89.0,72.3,29.99,ESE,115,0.0,1.0,58,0.00,,,0.00,VWS V14.01,2013-08-26 18:32:00,
2013-08-26 13:37:00,89.2,73.0,29.98,ESE,105,0.0,2.0,59,0.00,,,0.00,VWS V14.01,2013-08-26 18:37:00,
2013-08-26 13:42:00,88.9,73.7,29.98,WSW,250,0.0,2.0,61,0.00,,,0.00,VWS V14.01,2013-08-26 18:42:00,
2013-08-26 13:47:00,88.9,74.2,29.98,South,173,0.0,2.0,62,0.00,,,0.00,VWS V14.01,2013-08-26 18:47:00,
2013-08-26 13:52:00,89.1,72.9,29.98,SSE,159,1.0,2.0,59,0.00,,,0.00,VWS V14.01,2013-08-26 18:52:00,
2013-08-26 13:57:00,89.1,73.4,29.98,SSE,157,1.0,2.0,60,0.00,,,0.00,VWS V14.01,2013-08-26 18:57:00,
2013-08-26 14:00:00,89.0,73.3,29.97,SSE,149,0.0,2.0,60,0.00,,CLR,0.00,VWS V14.01,2013-08-26 19:00:00,
2013-08-26 14:02:00,88.8,72.6,29.97,West,273,2.0,2.0,59,0.00,,,0.00,VWS V14.01,2013-08-26 19:02:00,
2013-08-26 14:07:00,88.7,73.0,29.97,South,188,0.0,2.0,60,0.00,,,0.00,VWS V14.01,2013-08-26 19:07:00,
2013-08-26 14:13:00,88.6,72.9,29.97,SSW,202,0.0,2.0,60,0.00,,,0.00,VWS V14.01,2013-08-26 19:13:00,
2013-08-26 14:18:00,88.5,71.8,29.97,South,184,0.0,3.0,58,0.00,,,0.00,VWS V14.01,2013-08-26 19:18:00,
2013-08-26 14:23:00,88.4,72.8,29.96,East,86,0.0,3.0,60,0.00,,,0.00,VWS V14.01,2013-08-26 19:23:00,
2013-08-26 14:28:00,88.4,73.2,29.96,ESE,116,0.0,3.0,61,0.00,,,0.00,VWS V14.01,2013-08-26 19:28:00,
2013-08-26 14:30:00,88.4,73.2,29.96,ESE,116,0.0,3.0,61,0.00,,CLR,0.00,VWS V14.01,2013-08-26 19:30:00,
2013-08-26 14:33:00,88.3,72.7,29.96,South,170,0.0,1.0,60,0.00,,,0.00,VWS V14.01,2013-08-26 19:33:00,
2013-08-26 14:38:00,87.9,72.8,29.96,ESE,109,0.0,1.0,61,0.00,,,0.00,VWS V14.01,2013-08-26 19:38:00,
2013-08-26 14:43:00,88.0,73.4,29.95,SE,128,2.0,2.0,62,0.00,,,0.00,VWS V14.01,2013-08-26 19:43:00,
2013-08-26 14:48:00,88.4,73.2,29.95,SSE,168,1.0,2.0,61,0.00,,,0.00,VWS V14.01,2013-08-26 19:48:00,
2013-08-26 14:53:00,88.3,74.1,29.95,SE,129,1.0,3.0,63,0.00,,,0.00,VWS V14.01,2013-08-26 19:53:00,
2013-08-26 14:58:00,88.5,72.3,29.95,East,89,0.0,3.0,59,0.00,,,0.00,VWS V14.01,2013-08-26 19:58:00,
2013-08-26 15:00:00,88.6,72.9,29.95,SSE,160,1.0,3.0,60,0.00,,CLR,0.00,VWS V14.01,2013-08-26 20:00:00,
2013-08-26 15:03:00,88.4,73.7,29.95,SSW,200,0.0,6.0,62,0.00,,,0.00,VWS V14.01,2013-08-26 20:03:00,
2013-08-26 15:08:00,88.4,73.2,29.95,South,175,1.0,6.0,61,0.00,,,0.00,VWS V14.01,2013-08-26 20:08:00,
2013-08-26 15:13:00,88.6,72.9,29.95,SSE,152,0.0,6.0,60,0.00,,,0.00,VWS V14.01,2013-08-26 20:13:00,
2013-08-26 15:19:00,88.8,73.1,29.95,South,173,1.0,6.0,60,0.00,,,0.00,VWS V14.01,2013-08-26 20:19:00,
2013-08-26 15:24:00,88.8,73.1,29.94,SE,127,2.0,6.0,60,0.00,,,0.00,VWS V14.01,2013-08-26 20:24:00,
2013-08-26 15:29:00,89.1,72.9,29.94,ESE,109,0.0,6.0,59,0.00,,,0.00,VWS V14.01,2013-08-26 20:29:00,
2013-08-26 15:30:00,89.1,72.9,29.94,ESE,109,0.0,6.0,59,0.00,,CLR,0.00,VWS V14.01,2013-08-26 20:30:00,
2013-08-26 15:34:00,89.1,72.9,29.94,SE,141,1.0,2.0,59,0.00,,,0.00,VWS V14.01,2013-08-26 20:34:00,
2013-08-26 15:39:00,89.2,73.5,29.94,SSE,148,0.0,3.0,60,0.00,,,0.00,VWS V14.01,2013-08-26 20:39:00,
2013-08-26 15:44:00,89.1,73.4,29.94,SSW,207,0.0,3.0,60,0.00,,,0.00,VWS V14.01,2013-08-26 20:44:00,
2013-08-26 15:49:00,89.2,74.0,29.93,NW,310,0.0,3.0,61,0.00,,,0.00,VWS V14.01,2013-08-26 20:49:00,
2013-08-26 15:54:00,89.3,72.6,29.93,SSE,167,1.0,3.0,58,0.00,,,0.00,VWS V14.01,2013-08-26 20:54:00,
2013-08-26 15:59:00,89.2,72.5,29.93,SSW,195,0.0,3.0,58,0.00,,,0.00,VWS V14.01,2013-08-26 20:59:00,
2013-08-26 16:00:00,89.2,72.5,29.93,SSW,195,0.0,3.0,58,0.00,,CLR,0.00,VWS V14.01,2013-08-26 21:00:00,
2013-08-26 16:04:00,88.8,72.1,29.93,SSE,166,0.0,2.0,58,0.00,,,0.00,VWS V14.01,2013-08-26 21:04:00,
2013-08-26 16:09:00,88.3,72.7,29.93,SSE,150,1.0,2.0,60,0.00,,,0.00,VWS V14.01,2013-08-26 21:09:00,
2013-08-26 16:14:00,87.9,71.3,29.92,SE,146,0.0,2.0,58,0.00,,,0.00,VWS V14.01,2013-08-26 21:14:00,
2013-08-26 16:19:00,87.8,72.7,29.93,SSE,165,0.0,2.0,61,0.00,,,0.00,VWS V14.01,2013-08-26 21:19:00,
2013-08-26 16:25:00,87.9,72.3,29.92,South,188,0.0,3.0,60,0.00,,,0.00,VWS V14.01,2013-08-26 21:25:00,
2013-08-26 16:30:00,88.0,73.4,29.92,SSE,159,0.0,1.0,62,0.00,,,0.00,VWS V14.01,2013-08-26 21:30:00,
2013-08-26 16:35:00,88.1,73.0,29.92,SSE,159,0.0,1.0,61,0.00,,,0.00,VWS V14.01,2013-08-26 21:35:00,
2013-08-26 16:40:00,88.0,71.9,29.92,SW,233,0.0,2.0,59,0.00,,,0.00,VWS V14.01,2013-08-26 21:40:00,
2013-08-26 16:45:00,88.0,71.4,29.92,South,184,1.0,2.0,58,0.00,,,0.00,VWS V14.01,2013-08-26 21:45:00,
2013-08-26 16:50:00,88.0,71.9,29.92,South,188,1.0,2.0,59,0.00,,,0.00,VWS V14.01,2013-08-26 21:50:00,
2013-08-26 16:55:00,87.9,71.8,29.92,SSE,150,0.0,2.0,59,0.00,,,0.00,VWS V14.01,2013-08-26 21:55:00,
2013-08-26 17:00:00,87.7,71.6,29.92,South,169,0.0,1.0,59,0.00,,,0.00,VWS V14.01,2013-08-26 22:00:00,
2013-08-26 17:05:00,87.6,71.5,29.92,SE,142,0.0,2.0,59,0.00,,,0.00,VWS V14.01,2013-08-26 22:05:00,
2013-08-26 17:10:00,87.3,72.7,29.92,SSE,161,0.0,2.0,62,0.00,,,0.00,VWS V14.01,2013-08-26 22:10:00,
2013-08-26 17:15:00,87.0,72.4,29.91,South,175,0.0,2.0,62,0.00,,,0.00,VWS V14.01,2013-08-26 22:15:00,
2013-08-26 17:20:00,86.8,72.2,29.91,ESE,122,0.0,3.0,62,0.00,,,0.00,VWS V14.01,2013-08-26 22:20:00,
2013-08-26 17:25:00,86.7,72.1,29.91,ESE,122,0.0,3.0,62,0.00,,,0.00,VWS V14.01,2013-08-26 22:25:00,
2013-08-26 17:30:00,86.6,71.1,29.91,South,173,0.0,3.0,60,0.00,,CLR,0.00,VWS V14.01,2013-08-26 22:30:00,
2013-08-26 17:31:00,86.6,71.6,29.91,South,173,0.0,0.0,61,0.00,,,0.00,VWS V14.01,2013-08-26 22:31:00,
2013-08-26 17:36:00,86.6,71.6,29.91,SSE,152,0.0,1.0,61,0.00,,,0.00,VWS V14.01,2013-08-26 22:36:00,
2013-08-26 17:41:00,86.5,71.5,29.91,South,180,0.0,2.0,61,0.00,,CLR,0.00,VWS V14.01,2013-08-26 22:41:00,
2013-08-26 17:46:00,86.4,71.4,29.91,SSE,164,0.0,3.0,61,0.00,,CLR,0.00,VWS V14.01,2013-08-26 22:46:00,
2013-08-26 17:51:00,86.3,72.2,29.91,SSE,153,0.0,3.0,63,0.00,,CLR,0.00,VWS V14.01,2013-08-26 22:51:00,
2013-08-26 17:56:00,86.2,72.6,29.91,SE,124,0.0,3.0,64,0.00,,CLR,0.00,VWS V14.01,2013-08-26 22:56:00,
2013-08-26 18:00:00,86.1,72.5,29.91,SSE,166,0.0,3.0,64,0.00,,CLR,0.00,VWS V14.01,2013-08-26 23:00:00,
2013-08-26 18:01:00,86.0,72.4,29.91,SSW,209,0.0,2.0,64,0.00,,CLR,0.00,VWS V14.01,2013-08-26 23:01:00,
2013-08-26 18:06:00,85.9,71.8,29.91,South,176,0.0,2.0,63,0.00,,CLR,0.00,VWS V14.01,2013-08-26 23:06:00,
2013-08-26 18:11:00,85.8,71.8,29.91,SE,146,0.0,2.0,63,0.00,,CLR,0.00,VWS V14.01,2013-08-26 23:11:00,
2013-08-26 18:16:00,85.7,72.1,29.91,SSW,192,0.0,2.0,64,0.00,,CLR,0.00,VWS V14.01,2013-08-26 23:16:00,
2013-08-26 18:21:00,85.6,72.9,29.91,SSW,192,0.0,2.0,66,0.00,,CLR,0.00,VWS V14.01,2013-08-26 23:21:00,
2013-08-26 18:26:00,85.5,72.8,29.91,SSW,192,0.0,2.0,66,0.00,,CLR,0.00,VWS V14.01,2013-08-26 23:26:00,
2013-08-26 18:30:00,85.5,72.8,29.91,SSW,192,0.0,2.0,66,0.00,,CLR,0.00,VWS V14.01,2013-08-26 23:30:00,
2013-08-26 18:31:00,85.4,72.3,29.91,SSW,192,0.0,0.0,65,0.00,,CLR,0.00,VWS V14.01,2013-08-26 23:31:00,
2013-08-26 18:37:00,85.3,72.7,29.91,SSW,200,0.0,1.0,66,0.00,,CLR,0.00,VWS V14.01,2013-08-26 23:37:00,
2013-08-26 18:42:00,85.0,71.9,29.91,SSE,163,0.0,1.0,65,0.00,,CLR,0.00,VWS V14.01,2013-08-26 23:42:00,
2013-08-26 18:47:00,85.0,71.9,29.91,SSE,161,0.0,1.0,65,0.00,,CLR,0.00,VWS V14.01,2013-08-26 23:47:00,
2013-08-26 18:52:00,84.9,72.3,29.91,SW,230,0.0,1.0,66,0.00,,CLR,0.00,VWS V14.01,2013-08-26 23:52:00,
2013-08-26 18:57:00,84.7,72.1,29.91,SE,138,0.0,1.0,66,0.00,,CLR,0.00,VWS V14.01,2013-08-26 23:57:00,
2013-08-26 19:00:00,84.7,72.1,29.90,SSE,148,0.0,1.0,66,0.00,,CLR,0.00,VWS V14.01,2013-08-27 00:00:00,
2013-08-26 19:02:00,84.6,72.4,29.91,SSE,148,0.0,1.0,67,0.00,,CLR,0.00,VWS V14.01,2013-08-27 00:02:00,
2013-08-26 19:07:00,84.4,72.2,29.91,SSE,148,0.0,1.0,67,0.00,,CLR,0.00,VWS V14.01,2013-08-27 00:07:00,
2013-08-26 19:12:00,84.3,72.2,29.91,SSE,148,0.0,1.0,67,0.00,,CLR,0.00,VWS V14.01,2013-08-27 00:12:00,
2013-08-26 19:17:00,84.1,72.4,29.91,SSE,149,0.0,1.0,68,0.00,,CLR,0.00,VWS V14.01,2013-08-27 00:17:00,
2013-08-26 19:22:00,83.9,72.7,29.91,SSE,149,0.0,1.0,69,0.00,,CLR,0.00,VWS V14.01,2013-08-27 00:22:00,
2013-08-26 19:27:00,83.7,72.5,29.91,SSE,149,0.0,1.0,69,0.00,,CLR,0.00,VWS V14.01,2013-08-27 00:27:00,
2013-08-26 19:30:00,83.6,72.4,29.91,SSE,149,0.0,1.0,69,0.00,,CLR,0.00,VWS V14.01,2013-08-27 00:30:00,
2013-08-26 19:32:00,83.5,72.7,29.91,SSE,149,0.0,0.0,70,0.00,,CLR,0.00,VWS V14.01,2013-08-27 00:32:00,
2013-08-26 19:37:00,83.2,72.4,29.91,SSE,149,0.0,0.0,70,0.00,,CLR,0.00,VWS V14.01,2013-08-27 00:37:00,
2013-08-26 19:42:00,83.0,72.6,29.91,SSE,149,0.0,0.0,71,0.00,,CLR,0.00,VWS V14.01,2013-08-27 00:42:00,
2013-08-26 19:48:00,82.8,72.9,29.90,SSE,149,0.0,0.0,72,0.00,,CLR,0.00,VWS V14.01,2013-08-27 00:48:00,
2013-08-26 19:53:00,82.6,72.7,29.91,SSE,149,0.0,0.0,72,0.00,,CLR,0.00,VWS V14.01,2013-08-27 00:53:00,
2013-08-26 19:58:00,82.3,72.4,29.91,SSE,149,0.0,0.0,72,0.00,,CLR,0.00,VWS V14.01,2013-08-27 00:58:00,
2013-08-26 20:00:00,82.2,72.3,29.91,SSE,149,0.0,0.0,72,0.00,,CLR,0.00,VWS V14.01,2013-08-27 01:00:00,
2013-08-26 20:03:00,82.1,72.6,29.91,SSE,149,0.0,0.0,73,0.00,,CLR,0.00,VWS V14.01,2013-08-27 01:03:00,
2013-08-26 20:08:00,81.8,72.7,29.91,SSE,149,0.0,0.0,74,0.00,,CLR,0.00,VWS V14.01,2013-08-27 01:08:00,
2013-08-26 20:13:00,81.5,72.4,29.91,SSE,149,0.0,0.0,74,0.00,,CLR,0.00,VWS V14.01,2013-08-27 01:13:00,
2013-08-26 20:18:00,81.3,72.6,29.91,SSE,149,0.0,0.0,75,0.00,,CLR,0.00,VWS V14.01,2013-08-27 01:18:00,
2013-08-26 20:23:00,81.1,72.4,29.91,SSE,149,0.0,0.0,75,0.00,,CLR,0.00,VWS V14.01,2013-08-27 01:23:00,
2013-08-26 20:28:00,80.9,72.2,29.91,SSE,149,0.0,0.0,75,0.00,,CLR,0.00,VWS V14.01,2013-08-27 01:28:00,
2013-08-26 20:30:00,80.9,72.6,29.91,SSE,149,0.0,0.0,76,0.00,,CLR,0.00,VWS V14.01,2013-08-27 01:30:00,
2013-08-26 20:33:00,80.7,72.4,29.92,SSE,149,0.0,0.0,76,0.00,,CLR,0.00,VWS V14.01,2013-08-27 01:33:00,
2013-08-26 20:38:00,80.5,72.2,29.92,SSE,149,0.0,0.0,76,0.00,,CLR,0.00,VWS V14.01,2013-08-27 01:38:00,
2013-08-26 20:43:00,80.2,72.3,29.92,SSE,149,0.0,0.0,77,0.00,,CLR,0.00,VWS V14.01,2013-08-27 01:43:00,
2013-08-26 20:49:00,80.0,71.8,29.92,SSE,149,0.0,0.0,76,0.00,,CLR,0.00,VWS V14.01,2013-08-27 01:49:00,
2013-08-26 20:54:00,79.8,71.6,29.92,SSE,149,0.0,0.0,76,0.00,,CLR,0.00,VWS V14.01,2013-08-27 01:54:00,
2013-08-26 20:59:00,79.7,71.9,29.91,SSE,149,0.0,0.0,77,0.00,,CLR,0.00,VWS V14.01,2013-08-27 01:59:00,
2013-08-26 21:00:00,79.7,71.9,29.91,SSE,149,0.0,0.0,77,0.00,,CLR,0.00,VWS V14.01,2013-08-27 02:00:00,
2013-08-26 21:04:00,79.6,71.8,29.92,SSE,149,0.0,0.0,77,0.00,,CLR,0.00,VWS V14.01,2013-08-27 02:04:00,
2013-08-26 21:09:00,79.4,71.9,29.92,SSE,149,0.0,0.0,78,0.00,,CLR,0.00,VWS V14.01,2013-08-27 02:09:00,
2013-08-26 21:14:00,79.2,71.8,29.92,SSE,148,0.0,0.0,78,0.00,,CLR,0.00,VWS V14.01,2013-08-27 02:14:00,
2013-08-26 21:19:00,79.0,71.9,29.92,SSE,149,0.0,0.0,79,0.00,,CLR,0.00,VWS V14.01,2013-08-27 02:19:00,
2013-08-26 21:24:00,78.8,71.7,29.92,SSE,149,0.0,0.0,79,0.00,,CLR,0.00,VWS V14.01,2013-08-27 02:24:00,
2013-08-26 21:29:00,78.7,71.6,29.92,SSE,149,0.0,0.0,79,0.00,,CLR,0.00,VWS V14.01,2013-08-27 02:29:00,
2013-08-26 21:30:00,78.7,71.6,29.92,SSE,149,0.0,0.0,79,0.00,,CLR,0.00,VWS V14.01,2013-08-27 02:30:00,
2013-08-26 21:34:00,78.4,71.7,29.92,SSE,149,0.0,0.0,80,0.00,,CLR,0.00,VWS V14.01,2013-08-27 02:34:00,
2013-08-26 21:39:00,78.2,71.5,29.92,SSE,149,0.0,0.0,80,0.00,,CLR,0.00,VWS V14.01,2013-08-27 02:39:00,
2013-08-26 21:44:00,78.0,71.7,29.92,SSE,149,0.0,0.0,81,0.00,,CLR,0.00,VWS V14.01,2013-08-27 02:44:00,
2013-08-26 21:49:00,77.8,71.5,29.92,SSE,149,0.0,0.0,81,0.00,,CLR,0.00,VWS V14.01,2013-08-27 02:49:00,
2013-08-26 21:55:00,77.6,71.7,29.92,SSE,149,0.0,0.0,82,0.00,,CLR,0.00,VWS V14.01,2013-08-27 02:55:00,
2013-08-26 22:00:00,77.4,71.5,29.92,SSE,149,0.0,0.0,82,0.00,,CLR,0.00,VWS V14.01,2013-08-27 03:00:00,
2013-08-26 22:05:00,77.2,71.3,29.92,SSE,149,0.0,0.0,82,0.00,,CLR,0.00,VWS V14.01,2013-08-27 03:05:00,
2013-08-26 22:10:00,77.0,71.4,29.92,SSE,149,0.0,0.0,83,0.00,,CLR,0.00,VWS V14.01,2013-08-27 03:10:00,
2013-08-26 22:15:00,76.8,71.2,29.92,SSE,149,0.0,0.0,83,0.00,,CLR,0.00,VWS V14.01,2013-08-27 03:15:00,
2013-08-26 22:20:00,76.6,71.1,29.92,SSE,149,0.0,0.0,83,0.00,,CLR,0.00,VWS V14.01,2013-08-27 03:20:00,
2013-08-26 22:25:00,76.4,71.2,29.92,SSE,149,0.0,0.0,84,0.00,,CLR,0.00,VWS V14.01,2013-08-27 03:25:00,
2013-08-26 22:30:00,76.2,71.0,29.92,SSE,149,0.0,0.0,84,0.00,,CLR,0.00,VWS V14.01,2013-08-27 03:30:00,
2013-08-26 22:35:00,76.0,70.8,29.92,SSE,149,0.0,0.0,84,0.00,,CLR,0.00,VWS V14.01,2013-08-27 03:35:00,
2013-08-26 22:40:00,75.8,71.0,29.92,SSE,149,0.0,0.0,85,0.00,,CLR,0.00,VWS V14.01,2013-08-27 03:40:00,
2013-08-26 22:45:00,75.7,70.9,29.92,SSE,149,0.0,0.0,85,0.00,,CLR,0.00,VWS V14.01,2013-08-27 03:45:00,
2013-08-26 22:50:00,75.6,70.8,29.92,SSE,149,0.0,0.0,85,0.00,,CLR,0.00,VWS V14.01,2013-08-27 03:50:00,
2013-08-26 22:55:00,75.5,70.7,29.92,SSE,149,0.0,0.0,85,0.00,,CLR,0.00,VWS V14.01,2013-08-27 03:55:00,
2013-08-26 23:00:00,75.4,70.6,29.92,SSE,149,0.0,0.0,85,0.00,,CLR,0.00,VWS V14.01,2013-08-27 04:00:00,
2013-08-26 23:01:00,75.4,70.9,29.92,SSE,149,0.0,0.0,86,0.00,,CLR,0.00,VWS V14.01,2013-08-27 04:01:00,
2013-08-26 23:02:00,75.3,70.5,29.92,SSE,149,0.0,0.0,85,0.00,,CLR,0.00,VWS V14.01,2013-08-27 04:02:00,
2013-08-26 23:03:00,75.3,70.5,29.92,SSE,149,0.0,0.0,85,0.00,,CLR,0.00,VWS V14.01,2013-08-27 04:03:00,
2013-08-26 23:05:00,75.3,70.8,29.92,SSE,149,0.0,0.0,86,0.00,,CLR,0.00,VWS V14.01,2013-08-27 04:05:00,
2013-08-26 23:10:00,75.1,70.6,29.92,SSE,149,0.0,0.0,86,0.00,,CLR,0.00,VWS V14.01,2013-08-27 04:10:00,
2013-08-26 23:15:00,75.0,70.5,29.92,SSE,149,0.0,0.0,86,0.00,,CLR,0.00,VWS V14.01,2013-08-27 04:15:00,
2013-08-26 23:20:00,74.8,70.3,29.92,SSE,149,0.0,0.0,86,0.00,,CLR,0.00,VWS V14.01,2013-08-27 04:20:00,
2013-08-26 23:25:00,74.7,70.2,29.92,SSE,149,0.0,0.0,86,0.00,,CLR,0.00,VWS V14.01,2013-08-27 04:25:00,
2013-08-26 23:30:00,74.6,70.5,29.92,SSE,149,0.0,0.0,87,0.00,,CLR,0.00,VWS V14.01,2013-08-27 04:30:00,
2013-08-26 23:35:00,74.5,70.4,29.92,SSE,149,0.0,0.0,87,0.00,,CLR,0.00,VWS V14.01,2013-08-27 04:35:00,
2013-08-26 23:40:00,74.4,70.3,29.92,SSE,149,0.0,0.0,87,0.00,,CLR,0.00,VWS V14.01,2013-08-27 04:40:00,
2013-08-26 23:45:00,74.3,70.2,29.92,SSE,149,0.0,0.0,87,0.00,,CLR,0.00,VWS V14.01,2013-08-27 04:45:00,
2013-08-26 23:51:00,74.2,70.1,29.92,SSE,149,0.0,0.0,87,0.00,,CLR,0.00,VWS V14.01,2013-08-27 04:51:00,
2013-08-26 23:56:00,74.0,69.9,29.92,SSE,149,0.0,0.0,87,0.00,,CLR,0.00,VWS V14.01,2013-08-27 04:56:00,